TimeAKDT,TemperatureF,Dew PointF,Humidity,Sea Level PressureIn,VisibilityMPH,Wind Direction,Wind SpeedMPH,Gust SpeedMPH,PrecipitationIn,Events,Conditions,WindDirDegrees,DateUTC
12:53 AM,14.0,3.9,64,29.52,10.0,NNW,3.5,-,N/A,,Overcast,340,2013-04-10 08:53:00
1:53 AM,15.1,3.9,61,29.55,10.0,Calm,Calm,-,N/A,,Overcast,0,2013-04-10 09:53:00
2:53 AM,15.1,10.0,80,29.59,8.0,South,4.6,-,0.00,Snow,Light Snow,170,2013-04-10 10:53:00
3:38 AM,14.0,10.4,86,29.60,4.0,SSE,6.9,-,0.00,Snow,Light Snow,150,2013-04-10 11:38:00
3:46 AM,14.0,10.4,86,29.60,1.8,SE,4.6,-,0.00,Snow,Light Snow,140,2013-04-10 11:46:00
3:53 AM,12.9,10.0,88,29.62,1.5,SE,5.8,-,0.00,Snow,Light Snow,130,2013-04-10 11:53:00
4:01 AM,12.2,8.6,85,29.61,3.0,SE,5.8,-,0.00,Snow,Light Snow,140,2013-04-10 12:01:00
4:53 AM,12.9,7.0,77,29.63,2.5,ESE,3.5,-,0.00,Snow,Light Snow,120,2013-04-10 12:53:00
5:01 AM,12.2,6.8,79,29.62,5.0,East,3.5,-,0.00,Snow,Light Snow,100,2013-04-10 13:01:00
5:53 AM,12.0,6.1,77,29.65,10.0,SSE,8.1,-,0.00,,Overcast,160,2013-04-10 13:53:00
6:38 AM,10.4,3.2,73,29.66,10.0,SSE,4.6,-,N/A,,Overcast,160,2013-04-10 14:38:00
6:53 AM,10.0,3.9,76,29.67,10.0,SSE,5.8,-,N/A,,Scattered Clouds,160,2013-04-10 14:53:00
7:53 AM,9.0,1.9,73,29.69,10.0,SE,4.6,-,N/A,,Scattered Clouds,140,2013-04-10 15:53:00
8:53 AM,12.0,3.9,70,29.71,10.0,SSE,8.1,-,N/A,,Partly Cloudy,150,2013-04-10 16:53:00
9:15 AM,12.2,3.2,67,29.71,10.0,SE,5.8,-,N/A,,Scattered Clouds,140,2013-04-10 17:15:00
9:53 AM,15.1,6.1,68,29.73,10.0,East,3.5,-,N/A,,Partly Cloudy,80,2013-04-10 17:53:00
10:34 AM,15.8,6.8,68,29.73,10.0,North,6.9,-,N/A,,Overcast,360,2013-04-10 18:34:00
10:53 AM,16.0,8.1,71,29.75,10.0,North,6.9,-,N/A,,Overcast,10,2013-04-10 18:53:00
11:01 AM,15.8,8.6,73,29.74,10.0,North,10.4,-,N/A,,Overcast,350,2013-04-10 19:01:00
11:20 AM,15.8,8.6,73,29.75,1.8,NNW,6.9,-,0.00,Snow,Light Snow,330,2013-04-10 19:20:00
11:34 AM,15.8,10.4,79,29.75,2.5,NNW,8.1,-,0.00,Snow,Light Snow,330,2013-04-10 19:34:00
11:45 AM,15.8,10.4,79,29.76,1.8,NNW,8.1,-,0.00,Snow,Light Snow,330,2013-04-10 19:45:00
11:53 AM,15.1,9.0,77,29.77,2.0,NNW,8.1,-,0.00,Snow,Light Snow,330,2013-04-10 19:53:00
12:04 PM,15.8,10.4,79,29.76,1.5,NNW,8.1,-,0.00,Snow,Light Snow,330,2013-04-10 20:04:00
12:24 PM,15.8,10.4,79,29.77,1.2,NW,5.8,-,0.00,Snow,Light Snow,320,2013-04-10 20:24:00
12:28 PM,15.8,10.4,79,29.78,0.8,NNW,5.8,-,0.00,Snow,Light Snow,340,2013-04-10 20:28:00
12:44 PM,17.6,12.2,79,29.78,1.0,NNW,5.8,-,0.00,Snow,Light Snow,330,2013-04-10 20:44:00
12:53 PM,17.1,12.0,81,29.79,2.0,North,8.1,-,0.00,Snow,Light Snow,350,2013-04-10 20:53:00
12:58 PM,17.6,10.4,73,29.78,3.0,NNW,6.9,-,0.00,Snow,Light Snow,330,2013-04-10 20:58:00
1:49 PM,17.6,6.8,63,29.80,9.0,NNW,4.6,-,0.00,,Overcast,330,2013-04-10 21:49:00
1:53 PM,18.0,7.0,62,29.81,10.0,NW,5.8,-,0.00,,Overcast,320,2013-04-10 21:53:00
2:53 PM,19.0,3.9,52,29.84,10.0,West,9.2,-,N/A,,Overcast,260,2013-04-10 22:53:00
3:53 PM,17.1,3.9,56,29.86,10.0,SW,6.9,-,N/A,,Clear,220,2013-04-10 23:53:00
4:53 PM,18.0,5.0,57,29.88,10.0,South,12.7,-,N/A,,Scattered Clouds,190,2013-04-11 00:53:00
5:53 PM,18.0,1.0,48,29.88,10.0,SSW,13.8,25.3,N/A,,Clear,210,2013-04-11 01:53:00
6:53 PM,18.0,6.1,60,29.89,10.0,South,10.4,-,0.00,,Scattered Clouds,190,2013-04-11 02:53:00
7:53 PM,18.0,5.0,57,29.89,10.0,South,8.1,-,0.00,,Scattered Clouds,170,2013-04-11 03:53:00
8:53 PM,17.1,1.9,52,29.90,10.0,SW,8.1,-,N/A,,Mostly Cloudy,220,2013-04-11 04:53:00
9:53 PM,17.1,9.0,71,29.92,10.0,SSE,11.5,-,N/A,,Overcast,160,2013-04-11 05:53:00
10:53 PM,16.0,8.1,71,29.94,7.0,SSE,6.9,-,0.00,Snow,Light Snow,160,2013-04-11 06:53:00
11:36 PM,15.8,6.8,68,29.94,9.0,SE,5.8,-,0.00,,Overcast,140,2013-04-11 07:36:00
11:53 PM,15.1,5.0,64,29.96,10.0,Calm,Calm,-,0.00,,Overcast,0,2013-04-11 07:53:00